TimePST,TemperatureF,Dew PointF,Humidity,Sea Level PressureIn,VisibilityMPH,Wind Direction,Wind SpeedMPH,Gust SpeedMPH,PrecipitationIn,Events,Conditions,WindDirDegrees,DateUTC
12:56 AM,50.0,46.9,89,30.04,10.0,SSW,8.1,-,N/A,,Overcast,210,2000-01-01 08:56:00
1:56 AM,50.0,46.0,86,30.05,10.0,SW,5.8,-,N/A,,Overcast,230,2000-01-01 09:56:00
2:56 AM,50.0,46.0,86,30.06,10.0,WSW,6.9,-,N/A,,Overcast,250,2000-01-01 10:56:00
3:56 AM,50.0,46.0,86,30.08,10.0,West,10.4,-,N/A,,Overcast,260,2000-01-01 11:56:00
4:56 AM,48.9,46.0,90,30.06,10.0,WSW,5.8,-,N/A,,Overcast,250,2000-01-01 12:56:00
5:56 AM,48.9,46.0,90,30.07,10.0,NNW,4.6,-,N/A,,Overcast,340,2000-01-01 13:56:00
6:56 AM,48.9,46.0,90,30.09,10.0,NNW,5.8,-,N/A,,Overcast,330,2000-01-01 14:56:00
7:56 AM,48.9,46.0,90,30.10,8.0,NNW,4.6,-,N/A,,Overcast,330,2000-01-01 15:56:00
8:56 AM,50.0,45.0,83,30.12,10.0,WNW,3.5,-,N/A,,Overcast,290,2000-01-01 16:56:00
9:56 AM,51.1,44.1,77,30.14,10.0,West,4.6,-,N/A,,Overcast,270,2000-01-01 17:56:00
10:56 AM,51.1,44.1,77,30.14,10.0,WNW,6.9,-,N/A,,Overcast,290,2000-01-01 18:56:00
11:56 AM,52.0,45.0,77,30.12,10.0,West,13.8,-,N/A,,Overcast,260,2000-01-01 19:56:00
12:56 PM,52.0,45.0,77,30.09,10.0,West,16.1,21.9,N/A,,Mostly Cloudy,260,2000-01-01 20:56:00
1:56 PM,53.1,46.0,77,30.09,10.0,West,16.1,-,N/A,,Mostly Cloudy,270,2000-01-01 21:56:00
2:56 PM,53.1,46.0,77,30.09,10.0,West,19.6,28.8,N/A,,Scattered Clouds,260,2000-01-01 22:56:00
3:56 PM,53.1,46.0,77,30.10,10.0,West,15.0,-,N/A,,Mostly Cloudy,270,2000-01-01 23:56:00
4:56 PM,51.1,46.0,83,30.12,10.0,West,15.0,24.2,N/A,,Mostly Cloudy,270,2000-01-02 00:56:00
5:56 PM,50.0,45.0,83,30.12,10.0,West,18.4,-,N/A,,Scattered Clouds,260,2000-01-02 01:56:00
6:56 PM,50.0,45.0,83,30.14,10.0,West,12.7,-,N/A,,Mostly Cloudy,270,2000-01-02 02:56:00
7:56 PM,50.0,44.1,80,30.14,10.0,West,11.5,-,N/A,,Mostly Cloudy,270,2000-01-02 03:56:00
8:56 PM,48.9,45.0,86,30.15,10.0,West,15.0,-,N/A,,Scattered Clouds,260,2000-01-02 04:56:00
9:56 PM,48.9,45.0,86,30.15,10.0,West,23.0,-,N/A,,Partly Cloudy,260,2000-01-02 05:56:00
10:56 PM,48.0,45.0,89,30.17,10.0,West,18.4,-,N/A,,Partly Cloudy,260,2000-01-02 06:56:00
11:56 PM,46.9,44.1,90,30.18,10.0,West,10.4,-,N/A,,Partly Cloudy,270,2000-01-02 07:56:00